Skip Page Navigation
NASA JPL Caltech
NASA Logo - Jet Propulsion Laboratory + View the NASA Portal
+ Center for Near-Earth Object Studies
JPL Home Earth Solar System Stars & Galaxies Technology
JPL Solar System Dynamics
BODIES ORBITS EPHEMERIDES TOOLS PHYSICAL DATA DISCOVERY FAQ SITE MAP
JPL Small-Body Database Browser
Search: [ help ]  
181344 (2006 RB7)
Classification: Main-belt Asteroid          SPK-ID: 2181344
Ephemeris | Orbit Diagram | Orbital Elements | Mission Design | Physical Parameters | Discovery Circumstances ]

[ show orbit diagram ]
Orbital Elements at Epoch 2459200.5 (2020-Dec-17.0) TDB
Reference: JPL 12 (heliocentric ecliptic J2000)
 Element Value Uncertainty (1-sigma)   Units 
e .05966649641530471 4.2364e-08  
a 2.18949968131752 8.7956e-09 au
q 2.058859906430877 9.1485e-08 au
i 1.062287869127572 6.284e-06 deg
node 234.3075890525732 0.00024484 deg
peri 271.8405769685522 0.00025142 deg
M 12.84971882738202 5.6228e-05 deg
tp 2459158.261656251989
(2020-Nov-04.76165625)
0.00018477 TDB
period 1183.356924268365
3.24
7.1307e-06
1.952e-08
d
yr
n .3042192871965299 1.8332e-09 deg/d
Q 2.320139456204162 9.3204e-09 au
  Orbit Determination Parameters
   # obs. used (total)      276  
   data-arc span      7942 days (21.74 yr)  
   first obs. used      1999-08-03  
   last obs. used      2021-05-01  
   planetary ephem.      DE441  
   SB-pert. ephem.      SB441-N16  
   condition code      0  
   norm. resid. RMS      .56139  
   source      ORB  
   producer      Otto Matic  
   solution date      2021-May-04 10:09:25  

Additional Information
 Earth MOID = 1.07054 au 
 Jupiter MOID = 2.66534 au 
 T_jup = 3.671 
[ show covariance matrix ]

Ephemeris | Orbit Diagram | Orbital Elements | Mission Design | Physical Parameters | Discovery Circumstances ]

Physical Parameter Table
Parameter Symbol Value Units Sigma Reference Notes
absolute magnitude H 17.5   n/a MPO449919  

181344 (2006 RB7)          Discovered 2006-Sep-14 by Spacewatch at Kitt Peak
Reference: 20080321/Numbers.arcLast Updated: 2008-03-26

Alternate Designations
 2006 RB7 = 2005 JS62 
Ephemeris | Orbit Diagram | Orbital Elements | Mission Design | Physical Parameters | Discovery Circumstances ]
ABOUT SSD CREDITS/AWARDS PRIVACY/COPYRIGHT GLOSSARY LINKS
FirstGov 2021-May-18 06:52 UT
(server date/time)  
NASA Home Page
Site Manager:   Ryan S. Park
Webmaster  Alan B. Chamberlin